Location: Hopkins Observatory
(42.6965°N, 73.1843°W)
Time: 17:19:10
(UTC-04:00)

UOSAT-12 - Visible Passes

Search period start: 17 August 2017 00:00
Search period end: 27 August 2017 00:00
Orbit: 599 x 655 km, 64.6° (Epoch: 16 August)

Date Brightness Start Highest point End Pass type
(mag) Time Alt. Az. Time Alt. Az. Time Alt. Az.
17 Aug 9.7 00:27:14 15° NE 00:27:14 15° NE 00:28:01 10° NE visible
17 Aug 9.3 02:04:30 21° NNW 02:04:30 21° NNW 02:07:31 10° N visible
18 Aug 9.4 00:46:15 21° NNE 00:46:15 21° NNE 00:47:52 10° NNE visible
18 Aug 9.7 02:23:31 13° NW 02:24:16 13° NNW 02:26:26 10° N visible
19 Aug 9.3 01:05:13 23° N 01:05:13 23° N 01:07:27 10° NNE visible
19 Aug 9.7 23:46:53 13° NE 23:46:53 13° NE 23:47:26 10° NE visible
20 Aug 9.5 01:24:09 18° NNW 01:24:09 18° NNW 01:26:45 10° N visible
21 Aug 9.5 00:05:45 20° NNE 00:05:45 20° NNE 00:07:13 10° NNE visible
21 Aug 9.9 01:43:00 11° NW 01:43:46 12° NNW 01:45:27 10° N visible
22 Aug 9.4 00:24:33 22° N 00:24:33 22° N 00:26:44 10° NNE visible
22 Aug 9.5 23:06:00 15° NE 23:06:00 15° NE 23:06:49 10° NE visible
23 Aug 9.7 00:43:15 17° NNW 00:43:15 17° NNW 00:45:57 10° N visible
23 Aug 9.2 23:24:34 24° NNE 23:24:34 24° NNE 23:26:32 10° NNE visible
24 Aug 10.1 01:02:18 10° NW 01:03:16 11° NNW 01:04:16 10° NNW visible
24 Aug 9.4 22:05:41 13° NE 22:05:41 13° NE 22:06:12 10° NE visible
24 Aug 9.2 23:42:53 25° NNW 23:42:53 25° NNW 23:46:00 10° NNE visible
25 Aug 10.4 04:48:10 10° NNE 04:49:16 11° NNE 04:50:23 10° NE visible
25 Aug 8.3 22:23:35 33° NNE 22:23:35 33° NNE 22:26:11 10° NNE visible
26 Aug 9.9 00:00:45 13° WNW 00:02:21 15° NW 00:05:08 10° N visible
26 Aug 10.0 05:06:32 10° N 05:09:41 17° NE 05:12:49 10° E visible
26 Aug 8.5 21:03:08 20° E 21:03:08 20° E 21:05:16 10° ENE visible
26 Aug 8.2 22:40:07 33° W 22:41:26 42° NW 22:45:51 10° NNE visible
